Weather in West Yellowstone

United States     44°39′44″N   111°06′19″W
temp.,
°C
wind,
m/s
gust,
m/s
humid.,
%
clouds,
%
prec.,
mm/h
press.,
hPa
HPBL,
m
16 may, sun
sun1600:00+4nne328197 0.1 101534
03:00+2ne22895 0.0 101523
06:00+1ne22913 0.0 101617
09:00+8ene23560 0.0 1014574
12:00+14ene22405 0.0 10111676
15:00+17n322851 0.0 10082816
18:00+16ne432730 0.0 10072268
21:00+9ene3361100 0.0 101148
17 may, mon
mon1700:00+7se1171100 0.0 101313
03:00+6ene117893 0.0 101211
06:00+4e118413 0.0 101311
09:00+11s01561 0.0 1011372
12:00+16sw34375 0.0 10082044
15:00+18sw662983 0.0 10053152
18:00+17wsw543493 0.0 10042335
21:00+11ssw226177 0.3 100828
18 may, tue
tue1800:00+8se117526 0.3 101010
03:00+6ese11804 0.0 101010
06:00+5ese11845 0.0 101110
09:00+11sw12574 0.0 1009406
12:00+17sw56305 0.0 10062376
15:00+18sw883389 0.0 10052794
18:00+17ssw783772 0.0 10042196
21:00+11ssw511466 0.0 1008404
19 may, wed
wed1900:00+7sse11645 0.0 101010
03:00+5ese11742 0.0 101011
06:00+3e22804 0.0 101017
09:00+10s24530 0.0 1008813
12:00+16sw683687 0.0 10032557
15:00+17sw7113495 0.0 10003227
18:00+12s5856100 0.1 1001645
21:00+6se2283100 0.6 100434
20 may, thu
thu2000:00+6ese2489100 0.8 1005171
03:00+6e129294 1.0 100583
06:00+4sse1194100 1.6 100623
09:00+8se237795 0.8 1005669
12:00+12s245926 2.1 10021225
15:00+16sw6103995 1.8 9982666
18:00+12sse256021 2.3 1000401
21:00+7ne258792 2.6 1005330